Location: Cambridge (historical)
(38.6883°N, 119.0140°W)
Time: 13:44:32
(UTC+00:00)

Cosmos 2369 - Pass Details

Date: 29 October 2020
Orbit: 841 x 854 km, 71.0° (Epoch: 01 December)

Event Time Altitude Azimuth Distance (km) Brightness Sun altitude
Exits shadow 12:08:26 23° 346° (NNW) 1,718 5.2 -26.3°
Maximum altitude 12:12:01 70° 66° (ENE) 893 3.9 -25.6°
Drops below altitude 10° 12:17:37 10° 150° (SSE) 2,449 6.4 -24.5°
Sets 12:20:04 0° 153° (SSE) 3,380 7.2 -24.0°
